[[{"header":{"parameterUnit":"m.s-1","parameterCategory":1,"la1":30.2991,"la2":30.254,"lo1":-89.0895,"lo2":-89.0444,"dy":0.0017,"dx":0.0017,"nx":28,"ny":28,"refTime":"2024-02-20T03:00:00:Z","depth":0,"parameterNumber":2,"parameterNumberName":"U-component_of_WINDS"},"data":[0,0,0,0,0,0,0,0,0,0,0,0,0,0,0,0,0,0,0,0,0,0,0,0,0,0,0,0,0,0,0,0,0,0,0,0,0,0,0,0,0,0,0,0,0,0,0,0,0,0,0,0,0,0,0,0,0,0,0.6904,0.6904,0,0.6878,0.6878,0.6878,0.6804,0.6802,0.6801,0.6799,0.6774,0.6774,0.6775,0,0,0,0,0,0,0,0,0,0,0,0,0,0.6891,0.6892,0.6904,0.6904,0.6904,0.6878,0.6878,0.6878,0.6804,0.6802,0.68,0.6798,0.6773,0.6774,0.6775,0,0,0,0,0,0,0,0,0,0,0,0,0,0.6884,0.6892,0.6905,0.6864,0.686,0.6878,0.6878,0.6878,0.6804,0.6802,0.68,0.6797,0.6773,0.6774,0.6775,0.6831,0,0,0.6779,0.678,0,0,0,0,0,0,0,0,0.6885,0.6885,0.687,0.6867,0.6862,0.6842,0.6864,0.6862,0.6805,0.6826,0.6799,0.6796,0.6798,0.6797,0.6798,0.683,0.6829,0.6779,0.678,0.6781,0.6781,0,0,0,0,0,0,0,0.6885,0.6886,0.6894,0.687,0.6865,0.6847,0.6844,0.6863,0.6826,0.6824,0.6818,0.6816,0.6796,0.6797,0.6797,0.6829,0.6779,0.678,0.6781,0.6782,0.6904,0.6907,0,0,0,0,0,0,0.6892,0.6887,0.6895,0.6893,0.6868,0.6849,0.6845,0.6851,0.6825,0.6819,0.6818,0.6813,0.6796,0.6795,0.6795,0.6858,0.6781,0.6782,0.6782,0.6902,0.6905,0.6908,0,0,0,0,0,0,0.6892,0.6893,0.6896,0.6888,0.6887,0.6852,0.6859,0.6852,0.6852,0.6821,0.6814,0.6826,0.6794,0.6794,0.6823,0.6856,0.6782,0.6783,0.6899,0.6903,0.6906,0.6985,0,0,0,0,0,0,0.6891,0.6893,0.6914,0.6889,0.6888,0.6924,0.6861,0.6853,0.6855,0.6847,0.6827,0.6821,0.6792,0.6821,0.6824,0.6857,0.6784,0.6896,0.6901,0.6905,0.698,0.6991,0.7001,0,0,0,0,0,0.6891,0.6938,0.6916,0.6917,0.6913,0.6926,0.6925,0.689,0.6858,0.6878,0.6858,0.6822,0.6852,0.6825,0.6827,0.6861,0.6894,0.6899,0.6905,0.6975,0.6989,0.7001,0,0,0,0,0,0,0.6969,0.6934,0.6909,0.6949,0.6941,0.6913,0.6938,0.6907,0.6908,0.6901,0.6858,0.6854,0.6889,0.6878,0.6848,0.6913,0.6867,0.6873,0.6919,0.6933,0.6943,0.6945,0.6785,0,0,0,0,0,0.699,0.7003,0.6972,0.7011,0.7008,0.6974,0.6978,0.6952,0.6942,0.6938,0.692,0.6912,0.6919,0.6925,0.6931,0.6978,0.6972,0.7002,0.7013,0.7022,0.7028,0.7051,0.7064,0.6926,0.6926,0.6926,0,0,0.7035,0.7018,0.7029,0.7026,0.7016,0.703,0.6971,0.6989,0.6999,0.6941,0.6966,0.6953,0.6941,0.6979,0.6995,0.6971,0.7065,0.7029,0.7037,0.7038,0.7058,0.7071,0.7083,0.693,0.693,0.6929,0,0,0.7124,0.7113,0.7143,0.7134,0.712,0.7097,0.7105,0.7082,0.707,0.7095,0.7052,0.7063,0.7078,0.707,0.7069,0.7154,0.7121,0.7157,0.7215,0.7237,0.7248,0.7258,0.7287,0.7299,0.7164,0.7164,0.7164,0,0.7182,0.7201,0.7162,0.7182,0.7182,0.7129,0.7159,0.7153,0.7142,0.7143,0.7117,0.7133,0.7121,0.7156,0.7177,0.7178,0.7184,0.7159,0.725,0.7259,0.7267,0.7295,0.7306,0.7168,0.7168,0.7167,0.7167,0,0.7272,0.7286,0.7312,0.7302,0.7305,0.733,0.7295,0.7302,0.7276,0.7256,0.7282,0.7266,0.7267,0.7273,0.7248,0.7305,0.729,0.7257,0.721,0.7285,0.7311,0.7321,0.7175,0.7173,0.7172,0.7171,0,0,0.7409,0.7377,0.7387,0.7381,0.7361,0.7372,0.7394,0.7394,0.7401,0.7395,0.7413,0.7426,0.7395,0.7393,0.7367,0.7387,0.7455,0.7352,0.7351,0.7371,0.7515,0.754,0.7553,0.7433,0.7435,0.7436,0.7516,0,0.7492,0.7528,0.7494,0.7537,0.7549,0.7499,0.7518,0.7509,0.7491,0.7498,0.7478,0.7488,0.7447,0.7445,0.7463,0.7443,0.7483,0.7437,0.7448,0.7449,0.7452,0.7566,0.7592,0.7668,0.7526,0.7528,0.7529,0,0.7594,0.7592,0.7636,0.7613,0.7617,0.7635,0.7632,0.764,0.7628,0.7613,0.7611,0.7578,0.7599,0.7553,0.758,0.7549,0.7552,0.7543,0.7545,0.7544,0.7493,0.7568,0.7692,0.7703,0.7544,0.7543,0.7542,0,0.7689,0.7697,0.7724,0.7721,0.7694,0.7708,0.7698,0.7683,0.7685,0.7683,0.7684,0.7684,0.7684,0.7685,0.7654,0.7623,0.7685,0.7637,0.7673,0.7674,0.7688,0.7687,0.7814,0.7691,0.7691,0.7691,0.7691,0,0.7785,0.7813,0.7766,0.7782,0.7813,0.7773,0.7805,0.7789,0.7777,0.7789,0.7747,0.776,0.7717,0.7726,0.7701,0.7727,0.7728,0.7717,0.771,0.772,0.7721,0.7721,0.7714,0.7694,0.7693,0.7693,0.7692,0,0.7895,0.7864,0.789,0.7863,0.7857,0.788,0.7857,0.7871,0.785,0.7867,0.7869,0.7836,0.7844,0.7812,0.7815,0.7798,0.7837,0.7822,0.7841,0.7836,0.7874,0.787,0.8003,0.8019,0.7888,0.7889,0.789,0,0.7958,0.7978,0.7953,0.7958,0.795,0.7959,0.7961,0.7923,0.7926,0.7913,0.7929,0.7933,0.7934,0.7949,0.7926,0.7928,0.7911,0.7958,0.7911,0.7921,0.7911,0.791,0.7911,0.7967,0.7969,0.797,0.7971,0,0.8072,0.8056,0.8059,0.8058,0.806,0.8057,0.8051,0.8058,0.8017,0.8023,0.803,0.8031,0.8033,0.8038,0.8035,0.8024,0.7991,0.7986,0.7995,0.8005,0.8015,0.8009,0.7866,0.7983,0.7982,0.7981,0.7981,0.798,0.816,0.8175,0.816,0.8165,0.8156,0.8152,0.8163,0.8144,0.8149,0.8147,0.8124,0.8136,0.8123,0.8115,0.8108,0.8116,0.8094,0.8107,0.811,0.8113,0.8119,0.8014,0.8115,0.8115,0.8115,0.8114,0.8114,0,0.8271,0.8258,0.8264,0.8256,0.826,0.8228,0.822,0.8226,0.8236,0.8226,0.8228,0.8236,0.824,0.8217,0.8218,0.8229,0.8214,0.823,0.8229,0.8227,0.8139,0.8131,0.8243,0.8243,0.8243,0.8243,0.8243,0.8243,0.8329,0.8354,0.8336,0.8355,0.8342,0.8353,0.835,0.8346,0.8338,0.8348,0.8351,0.8336,0.8321,0.832,0.8322,0.8315,0.8317,0.8339,0.8327,0.8246,0.8233,0.8221,0.8213,0.834,0.834,0.8414,0.8415,0.8415]},{"header":{"parameterUnit":"m.s-1","parameterCategory":1,"la1":30.2991,"la2":30.254,"lo1":-89.0895,"lo2":-89.0444,"dy":0.0017,"dx":0.0017,"nx":28,"ny":28,"refTime":"2024-02-20T03:00:00:Z","depth":0,"parameterNumber":3,"parameterNumberName":"V-component_of_WINDS"},"data":[0,0,0,0,0,0,0,0,0,0,0,0,0,0,0,0,0,0,0,0,0,0,0,0,0,0,0,0,0,0,0,0,0,0,0,0,0,0,0,0,0,0,0,0,0,0,0,0,0,0,0,0,0,0,0,0,0,0,0.5754,0.5753,0,0.5691,0.569,0.5689,0.5621,0.562,0.5619,0.5618,0.5552,0.5551,0.555,0,0,0,0,0,0,0,0,0,0,0,0,0,0.5815,0.5814,0.5754,0.5753,0.5752,0.5691,0.569,0.5689,0.5621,0.562,0.5619,0.5618,0.5552,0.5551,0.555,0,0,0,0,0,0,0,0,0,0,0,0,0,0.5774,0.5814,0.5754,0.5711,0.5707,0.5691,0.569,0.5689,0.5621,0.562,0.5618,0.5617,0.5552,0.5551,0.555,0.5571,0,0,0.5546,0.5545,0,0,0,0,0,0,0,0,0.5776,0.5771,0.5718,0.5714,0.5709,0.5662,0.5687,0.5649,0.5622,0.5654,0.5618,0.5616,0.5589,0.5585,0.5576,0.5567,0.5565,0.5545,0.5545,0.5544,0.5544,0,0,0,0,0,0,0,0.5779,0.5774,0.5729,0.5718,0.5712,0.5694,0.5687,0.5679,0.563,0.5651,0.5646,0.5639,0.5587,0.5578,0.5574,0.5564,0.5545,0.5544,0.5544,0.5543,0.5568,0.5569,0,0,0,0,0,0,0.5788,0.5777,0.5731,0.5727,0.574,0.5695,0.5686,0.5679,0.563,0.5622,0.5641,0.5636,0.5581,0.5576,0.5572,0.5592,0.5544,0.5543,0.5542,0.5567,0.5568,0.557,0,0,0,0,0,0,0.579,0.5785,0.5733,0.575,0.5742,0.5695,0.5687,0.5678,0.5669,0.5623,0.5613,0.564,0.5579,0.5573,0.5571,0.5589,0.5542,0.5541,0.5565,0.5567,0.5569,0.5635,0,0,0,0,0,0,0.5792,0.5786,0.5794,0.5751,0.5742,0.5735,0.5688,0.5678,0.5667,0.5661,0.562,0.5612,0.5578,0.5574,0.557,0.5586,0.554,0.5563,0.5566,0.5568,0.5631,0.5639,0.5646,0,0,0,0,0,0.5794,0.5815,0.5795,0.579,0.5751,0.5736,0.5731,0.5692,0.5669,0.5676,0.5646,0.5613,0.5588,0.5574,0.5569,0.5586,0.5562,0.5565,0.5568,0.5628,0.5637,0.5646,0,0,0,0,0,0,0.586,0.5808,0.5785,0.5793,0.5769,0.5725,0.5733,0.5703,0.5686,0.5681,0.5632,0.5623,0.5627,0.5606,0.5591,0.5603,0.557,0.5573,0.5617,0.5626,0.5633,0.5638,0.5539,0,0,0,0,0,0.5876,0.5869,0.5823,0.5834,0.5824,0.5781,0.5773,0.5744,0.5718,0.5708,0.5678,0.5653,0.5639,0.5631,0.5616,0.5628,0.5617,0.5637,0.5644,0.5651,0.5653,0.5657,0.5665,0.5581,0.5581,0.5581,0,0,0.5907,0.5878,0.5877,0.5847,0.5825,0.5819,0.5773,0.5767,0.5762,0.5707,0.5703,0.568,0.5649,0.5654,0.5655,0.5637,0.5674,0.5655,0.566,0.5659,0.5661,0.5669,0.5676,0.5583,0.5582,0.5582,0,0,0.5962,0.5939,0.5945,0.5925,0.5894,0.5865,0.5866,0.5826,0.5809,0.5804,0.5763,0.5755,0.5733,0.5713,0.5699,0.5746,0.5715,0.5742,0.5782,0.5786,0.5793,0.5798,0.5814,0.5821,0.5745,0.5745,0.5745,0,0.6005,0.5994,0.5952,0.595,0.5937,0.5888,0.5893,0.5876,0.5841,0.5833,0.5814,0.5785,0.576,0.5759,0.5771,0.5762,0.5762,0.5747,0.5795,0.58,0.5805,0.582,0.5826,0.5749,0.5748,0.5748,0.5748,0,0.6048,0.6041,0.605,0.6018,0.6007,0.6008,0.5966,0.596,0.5933,0.5906,0.5902,0.5871,0.5848,0.5846,0.5819,0.5841,0.5831,0.5804,0.577,0.5817,0.583,0.5836,0.5754,0.5753,0.5752,0.5751,0,0,0.6142,0.6087,0.6091,0.6076,0.6038,0.6031,0.603,0.6009,0.6004,0.5982,0.5979,0.5962,0.5936,0.5921,0.5892,0.5896,0.5934,0.5868,0.5867,0.5881,0.5956,0.5976,0.5983,0.5913,0.5914,0.5915,0.5958,0,0.6189,0.6185,0.6148,0.6154,0.6147,0.61,0.6099,0.6075,0.605,0.6039,0.6011,0.5999,0.5967,0.5958,0.5959,0.5929,0.5948,0.5926,0.591,0.591,0.5919,0.599,0.6012,0.6054,0.5963,0.5964,0.5964,0,0.6243,0.6225,0.6231,0.6193,0.6188,0.6188,0.6165,0.6156,0.6128,0.6109,0.6093,0.606,0.6055,0.6023,0.6016,0.6002,0.5993,0.5977,0.5978,0.5974,0.594,0.5989,0.6066,0.6073,0.5972,0.5972,0.5971,0,0.6311,0.6287,0.6288,0.6276,0.6232,0.6233,0.6214,0.6184,0.6174,0.6154,0.6146,0.6126,0.6115,0.6099,0.6061,0.6042,0.6058,0.6023,0.6042,0.6043,0.6047,0.6048,0.6125,0.6043,0.6043,0.6043,0.6042,0,0.6367,0.6373,0.6318,0.6318,0.6322,0.6279,0.6285,0.6261,0.6235,0.623,0.6187,0.6183,0.6133,0.6122,0.6092,0.6091,0.6086,0.607,0.6062,0.6074,0.6076,0.6067,0.6063,0.6044,0.6044,0.6043,0.6043,0,0.6443,0.6406,0.6404,0.6362,0.6351,0.6357,0.632,0.6318,0.6291,0.6284,0.628,0.6236,0.6222,0.6182,0.6157,0.6137,0.6144,0.6129,0.6154,0.6149,0.6169,0.6168,0.6243,0.6251,0.6165,0.6166,0.6166,0,0.6481,0.6484,0.6443,0.6437,0.642,0.641,0.6399,0.6357,0.6347,0.6315,0.6317,0.6299,0.6283,0.6262,0.6227,0.6208,0.6192,0.622,0.6189,0.62,0.6192,0.6192,0.6192,0.6227,0.6228,0.6229,0.6229,0,0.6553,0.6535,0.6521,0.6502,0.649,0.6472,0.6452,0.6449,0.6401,0.6392,0.6377,0.6365,0.634,0.6323,0.6298,0.6277,0.6245,0.624,0.6243,0.6255,0.6269,0.6261,0.6172,0.6238,0.6237,0.6236,0.6236,0.6236,0.6611,0.6611,0.6582,0.6568,0.6549,0.6531,0.6527,0.6499,0.6486,0.6463,0.6439,0.6426,0.6397,0.6361,0.6343,0.6332,0.6315,0.632,0.6321,0.6323,0.6328,0.6271,0.6327,0.6327,0.6327,0.6327,0.6326,0,0.668,0.6659,0.6647,0.662,0.6609,0.6581,0.6557,0.655,0.654,0.6516,0.6501,0.6483,0.6466,0.6431,0.641,0.6408,0.6393,0.6404,0.6404,0.64,0.6344,0.6344,0.6417,0.6417,0.6417,0.6417,0.6417,0.6417,0.6714,0.6714,0.6692,0.6681,0.666,0.6648,0.6637,0.662,0.6601,0.6584,0.657,0.6547,0.6518,0.6495,0.6478,0.6468,0.6462,0.6478,0.6463,0.6412,0.6404,0.6395,0.6394,0.6477,0.6477,0.6519,0.6519,0.652]}]]